Погода в Архангеле

Россия / Ивановская область     57°06′22″N   40°19′21″E
темп.,
°C
ветер,
м/с
пор.,
м/с
влажн.,
%
обл.,
%
осадки,
мм/ч
давл.,
гПа
погр.,
м
19 января, ср
ср1900:00−12зсз3119699 0.0 1014306
03:00−15зсз399886 0.1 1015169
06:00−16зсз289763 0.0 1015139
09:00−20зюз1110089 0.0 101610
12:00−13юз239232 0.0 1015125
15:00−10ююз379294 0.0 1014213
18:00−11ююз4119024 0.0 1013241
21:00−10ююз4129077 0.0 1011322
20 января, чт
чт2000:00−10ююз41395100 0.1 1010361
03:00−10ю51395100 0.1 1009353
06:00−7ю51594100 0.1 1007434
09:00−7ю51494100 0.2 1006444
12:00−6ю51593100 0.1 1006478
15:00−5ю61593100 0.1 1006599
18:00−6ю61592100 0.1 1005571
21:00−7ю61692100 0.1 1005617
21 января, пт
пт2100:00−8ю61691100 0.1 1006610
03:00−9ю61591100 0.2 1006588
06:00−8ю51393100 0.4 1006534
09:00−8ююв51294100 0.9 1008501
12:00−7ююв41194100 0.7 1008542
15:00−7юв51394100 1.4 1007663
18:00−7юв51292100 0.6 1007748
21:00−7юв51294100 1.1 1007669
22 января, сб
сб2200:00−7вюв51294100 0.5 1008637
03:00−7юв41195100 1.3 1009572
06:00−8юв3995100 0.2 1011315
09:00−10вюв399697 0.3 1014237
12:00−8вюв3996100 0.1 1017292
15:00−7вюв4995100 0.1 1018352
18:00−9вюв3109798 0.0 1021253
21:00−13в2699100 0.1 1022100
23 января, вс
вс2300:00−13всв2599100 0.0 102485
03:00−12св2598100 0.1 102593
06:00−11с2497100 0.1 1025106
09:00−9с2497100 0.6 1026145
12:00−7с1192100 0.3 1027241
15:00−7з129499 0.3 1029186
18:00−15зюз1110091 0.0 10329
21:00−18ююз11100100 0.1 10339